Flag for United Arab Emirates Weather past 2 weeks in Abu Dhabi, Abu Dhabi, United Arab Emirates

Now
99 °F

Sunny.


Feels Like: 112 °F
Forecast: 90 / 99 °F
Wind: 13 mph from Northwest

Location: Abu Dhabi Bateen Airport

Current Time: Jul 7, 2015 at 11:50:35 AM

Latest Report: Jul 7, 2015 at 11:00 AM


Visibility: 10 mi

Pressure: 29.42 "Hg

Humidity: 47%

Dew point: 75 °F

Location of Abu DhabiLocation

Historic Weather in Abu Dhabi — Graph

°F

Abu Dhabi temperature yesterday

Maximum temperature yesterday: 102 °F (at 2:00 PM)
Minimum temperature yesterday: 90 °F (at 3:00 AM)
Average temperature yesterday: 95 °F

Past Weeks' High & Low Weather Summary

 TemperatureHumidityPressure
High117 °F (Jul 4, 3:00 PM)89% (Jul 3, 3:00 AM)29.65 "Hg (Jul 3, 3:00 AM)
Low84 °F (Jun 24, 6:00 AM)10% (Jul 4, 4:00 PM)29.39 "Hg (Jun 22, 2:00 PM)
Average95 °F47%29.52 "Hg
* Reported Jun 22 11:00 AM — Jul 7 11:00 AM, Abu Dhabi, Weather by CustomWeather, © 2015

Note: Actual official high and low records may vary slightly from our data, if they occured in-between our weather recording intervals... More about our weather records

Advertising

Abu Dhabi weather history for previous 24 hours

 ConditionsComfort  
Time TempWeatherWind HumidityBarometerVisibility
11:00 AM
Tue, Jul 7
99 °FSunny.13 mph47%29.42 "Hg10 mi
10:00 AM97 °FSunny.13 mph53%29.42 "Hg10 mi
9:00 AM97 °FPassing clouds.10 mph53%29.42 "HgN/A
8:00 AM95 °FPassing clouds.8 mph56%29.42 "HgN/A
7:00 AM91 °FPassing clouds.5 mph67%29.42 "HgN/A
6:00 AM91 °FPassing clouds.5 mph67%29.42 "HgN/A
5:00 AM91 °FPassing clouds.5 mph63%29.39 "HgN/A
4:00 AM91 °FPassing clouds.6 mph63%29.39 "HgN/A
3:00 AM90 °FClear.9 mph71%29.39 "Hg10 mi
2:00 AM90 °FPassing clouds.7 mph71%29.39 "HgN/A
1:00 AM90 °FPassing clouds.7 mph71%29.39 "HgN/A
12:00 AM90 °FPassing clouds.10 mph71%29.42 "HgN/A
11:00 PM
Mon, Jul 6
90 °FClear.13 mph75%29.45 "Hg10 mi
10:00 PM91 °FClear.12 mph71%29.45 "Hg10 mi
9:00 PM91 °FPassing clouds.8 mph71%29.45 "HgN/A
8:00 PM93 °FClear.9 mph67%29.42 "Hg10 mi
7:00 PM95 °FSunny.10 mph63%29.42 "Hg10 mi
6:00 PM97 °FPassing clouds.12 mph56%29.42 "HgN/A
5:00 PM102 °FPassing clouds.9 mph40%29.42 "HgN/A
4:00 PM102 °FPassing clouds.10 mph40%29.42 "HgN/A
3:00 PM102 °FClear.13 mph42%29.42 "Hg5 mi
2:00 PM102 °FClear.8 mph37%29.45 "Hg5 mi
1:00 PM100 °FClear.10 mph42%29.47 "Hg4 mi
12:00 PM100 °FClear.7 mph40%29.47 "Hg4 mi
11:00 AM100 °FClear.8 mph40%29.50 "Hg4 mi
Weather by CustomWeather, © 2015

See weather overviewHow to use our weather pages